AirNav   Air Wisconsin pilot careers
 
 369 users online  

WI56 C Jeidy Farms Airport
Bloomington, Wisconsin, USA

GOING TO BLOOMINGTON?


FAA INFORMATION EFFECTIVE 21 JUNE 2018

Location

FAA Identifier: WI56
Lat/Long: 42-52-53.9600N / 090-51-38.4560W
42-52.899333N / 090-51.640933W
42.8816556 / -90.8606822
(estimated)
Elevation: 1010 ft. / 308 m (estimated)
Variation: 01E (1985)
From city: 3 miles E of BLOOMINGTON, WI
Time zone: UTC -5 (UTC -6 during Standard Time)
Zip code: 53804

Airport Operations

Airport use: Private use. Permission required prior to landing
Activation date: 02/1975
Control tower: no
ARTCC: CHICAGO CENTER
FSS: GREEN BAY FLIGHT SERVICE STATION
Attendance: UNATNDD
Wind indicator: yes
Segmented circle: no

Airport Communications

WX AWOS-3 at PDC (14 nm NW): 119.925 (608-326-9122)
WX ASOS at OVS (19 nm NE): 126.775 (608-375-2712)

Nearby radio navigation aids

VOR radial/distance  VOR name  Freq  Var
DBQr343/29.6DUBUQUE VORTAC115.8004E
UKNr124/38.1WAUKON VOR/DME116.6005E

Airport Services

Airframe service: NONE
Powerplant service: NONE

Runway Information

Runway 18/36

Dimensions: 2000 x 75 ft. / 610 x 23 m
Surface: turf
RUNWAY 18  RUNWAY 36
Traffic pattern: leftleft

Airport Ownership and Management from official FAA records

Ownership: Privately-owned
Owner: CHARLES E. JEIDY
RR 1
BLOOMINGTON, WI 53804
Phone 608-994-2313

Airport Operational Statistics

Aircraft based on the field: 1
Single engine airplanes: 1
    

Instrument Procedures

There are no published instrument procedures at WI56.

Some nearby airports with instrument procedures:

KPDC - Prairie du Chien Municipal Airport (14 nm NW)
KOVS - Boscobel Airport (19 nm NE)
KPVB - Platteville Municipal Airport (22 nm SE)
KMRJ - Iowa County Airport (27 nm E)
KDBQ - Dubuque Regional Airport (30 nm S)
 
Loc | Ops | Rwys | IFR | FBO | Links
Com | Nav | Svcs | Stats | Notes

AirNav Hotels Sweepstakes
 
Area around WI56 (C Jeidy Farms Airport)
 
Road maps at: MapQuest Bing Google
 
Aerial photo
No photo
 
Sectional chart

 
Airport distance calculator
Flying to C Jeidy Farms Airport? Find the distance to fly.

From to WI56

Sunrise and sunset
Times for 22-Jun-2018
 Local
(UTC-5)
 Zulu
(UTC)
Morning civil twilight04:5109:51
Sunrise05:2610:26
Sunset20:4501:45
Evening civil twilight21:2002:20

Current date and time
Zulu (UTC)  22-Jun-2018 09:30:18
Local (UTC-5)  22-Jun-2018 04:30:18
 
METAR
KPDC 
14nm NW 
220915Z AUTO 00000KT 10SM OVC065 17/16 A2983 RMK AO2 P0001 T01700156
KOVS 
18nm NE 
220853Z AUTO 00000KT 9SM BKN070 OVC100 17/16 A2984 RMK AO2 SLP104 60000 T01720161 56009 TSNO
KPVB 
22nm SE 
220915Z AUTO 04009KT 10SM BKN075 OVC110 17/16 A2982 RMK AO1 T01670163
TAF
KDBQ 
30nm S 
220811Z 2208/2306 02009KT P6SM OVC040 FM221500 02011KT P6SM OVC030 FM230200 02007KT P6SM OVC035
NOTAMs
Click for the latest NOTAMs
NOTAMs are issued by the DoD/FAA and will open in a separate window not controlled by AirNav.

 

 
 

Would you like to see your business listed on this page?

 If your business provides an interesting product or service to pilots, flight crews, aircraft, or users of the C Jeidy Farms Airport, you should consider listing it here.  To start the listing process, click on the button below
 
Add a business
 

Other Pages about C Jeidy Farms Airport

Update a link
 
Copyright © AirNav, LLC. All rights reserved. Privacy Policy  Contact